Madisonville, KY

1:51 AM CST on December 14, 2019 (GMT -0600)
Madisonville

Weather History for K2I0 - October, 2019

Change the Weather History Date:

Saturday, October 5, 2019

  Actual Average (WUND) Record (WUND)
Temperature  
Mean Temperature 70 °F -  
Max Temperature 88 °F - - (-1)
Min Temperature 52 °F - - (-1)
Cooling Degree Days 5    
Growing Degree Days 20 (Base 50)    
Moisture  
Dew Point 47 °F    
Average Humidity 51    
Maximum Humidity 80    
Minimum Humidity 19    
Precipitation  
Precipitation 0.00 in - - ()
Sea Level Pressure  
Sea Level Pressure 30.05 in    
Wind  
Wind Speed 3 mph ()    
Max Wind Speed 10 mph    
Max Gust Speed -    
Visibility 9.8 miles    
Events      
Averages and records for this station are not official NWS values.
T = Trace of Precipitation, MM = Missing Value Source: Averaged Metar Reports

Daily Weather History Graph

Daily Weather History Graph

Search for Another Location

Airport or City:

Astronomy

Oct. 05, 2019 Rise Set
Actual Time 6:48 AM CDT 6:27 PM CDT
Civil Twilight 6:22 AM CDT 6:53 PM CDT
Nautical Twilight 5:52 AM CDT 7:23 PM CDT
Astronomical Twilight 5:21 AM CDT 7:53 PM CDT
Moon 2:06 PM CDT (10/5) 11:56 PM CDT (10/5)
Length of Visible Light 12h 30m
Length of Day
11h 38m
Waxing Crescent, 50% of the Moon is Illuminated
Oct 5
Waxing Crescent
Oct 13
Full
Oct 21
Last Quarter
Oct 27
New
Nov 4
First Quarter

Hourly Weather History & Observations

Time (CDT) Temp. Dew Point Humidity Pressure Visibility Wind Dir Wind Speed Gust Speed Precip Events Conditions
12:15 AM 58.6 °F 45.0 °F 60% 30.17 in 10.0 mi NE 4.6 mph - N/A   Clear
12:35 AM 57.2 °F 45.3 °F 65% 30.17 in 10.0 mi NE 4.6 mph - N/A   Clear
12:55 AM 58.1 °F 45.5 °F 63% 30.16 in 10.0 mi NE 4.6 mph - N/A   Clear
1:15 AM 57.0 °F 45.5 °F 65% 30.16 in 10.0 mi NNE 4.6 mph - N/A   Clear
1:35 AM 56.1 °F 45.5 °F 68% 30.15 in 10.0 mi Calm Calm - N/A   Clear
1:55 AM 56.7 °F 45.7 °F 67% 30.14 in 10.0 mi ENE 4.6 mph - N/A   Clear
2:15 AM 55.8 °F 45.7 °F 69% 30.14 in 10.0 mi Calm Calm - N/A   Clear
2:35 AM 55.6 °F 45.7 °F 69% 30.14 in 10.0 mi Calm Calm - N/A   Clear
2:55 AM 53.6 °F 45.9 °F 75% 30.13 in 10.0 mi NNE 4.6 mph - N/A   Clear
3:15 AM 55.0 °F 45.9 °F 71% 30.13 in 10.0 mi Calm Calm - N/A   Clear
3:35 AM 55.4 °F 45.9 °F 70% 30.13 in 10.0 mi Calm Calm - N/A   Clear
3:55 AM 54.3 °F 45.9 °F 73% 30.12 in 10.0 mi NNE 4.6 mph - N/A   Clear
4:15 AM 53.6 °F 45.7 °F 75% 30.12 in 10.0 mi NNE 4.6 mph - N/A   Clear
4:35 AM 54.5 °F 46.4 °F 74% 30.12 in 10.0 mi NNE 5.8 mph - N/A   Clear
4:55 AM 54.0 °F 46.4 °F 76% 30.11 in 10.0 mi NE 5.8 mph - N/A   Clear
5:15 AM 53.8 °F 46.4 °F 76% 30.11 in 10.0 mi NE 4.6 mph - N/A   Clear
5:35 AM 52.9 °F 46.0 °F 78% 30.10 in 10.0 mi NNE 4.6 mph - N/A   Clear
5:55 AM 52.0 °F 45.9 °F 80% 30.11 in 10.0 mi NNE 4.6 mph - N/A   Clear
6:15 AM 53.6 °F 46.4 °F 77% 30.11 in 10.0 mi NNE 5.8 mph - N/A   Clear
6:35 AM 53.6 °F 46.4 °F 77% 30.12 in 10.0 mi NNE 4.6 mph - N/A   Clear
6:55 AM 52.7 °F 46.4 °F 79% 30.12 in 10.0 mi North 4.6 mph - N/A   Clear
7:15 AM 53.4 °F 46.9 °F 79% 30.12 in 10.0 mi NNE 5.8 mph - N/A   Clear
7:35 AM 54.9 °F 47.7 °F 77% 30.12 in 10.0 mi NE 4.6 mph - N/A   Clear
7:55 AM 56.8 °F 48.9 °F 75% 30.12 in 10.0 mi NNE 4.6 mph - N/A   Clear
8:15 AM 58.8 °F 49.1 °F 70% 30.12 in 10.0 mi NE 6.9 mph - N/A   Clear
8:35 AM 60.6 °F 48.4 °F 64% 30.12 in 10.0 mi ENE 8.1 mph - N/A   Clear
8:55 AM 62.1 °F 48.6 °F 61% 30.11 in 10.0 mi East 6.9 mph - N/A   Clear
9:15 AM 64.4 °F 48.4 °F 56% 30.11 in 10.0 mi ESE 6.9 mph - N/A   Clear
9:35 AM 65.8 °F 48.4 °F 53% 30.10 in 10.0 mi ESE 4.6 mph - N/A   Clear
9:55 AM 67.5 °F 48.6 °F 51% 30.09 in 10.0 mi ESE 4.6 mph - N/A   Clear
10:15 AM 68.9 °F 48.7 °F 49% 30.09 in 10.0 mi SE 5.8 mph - N/A   Clear
10:35 AM 70.0 °F 48.9 °F 47% 30.08 in 10.0 mi East 3.5 mph - N/A   Clear
10:55 AM 71.8 °F 48.9 °F 44% 30.08 in 10.0 mi Calm Calm - N/A   Clear
11:15 AM 73.2 °F 47.8 °F 41% 30.08 in 10.0 mi Calm Calm - N/A   Clear
11:35 AM 75.6 °F 48.0 °F 38% 30.08 in 10.0 mi Calm Calm - N/A   Clear
11:55 AM 77.0 °F 47.8 °F 36% 30.06 in 7.0 mi Calm Calm - N/A   Clear
12:15 PM 77.9 °F 47.1 °F 34% 30.05 in 2.0 mi Calm Calm - N/A   Haze
12:35 PM 79.7 °F 47.1 °F 32% 30.04 in 10.0 mi East 4.6 mph - N/A   Clear
12:55 PM 81.5 °F 46.6 °F 29% 30.03 in 10.0 mi ESE 4.6 mph - N/A   Clear
1:15 PM 82.2 °F 45.7 °F 28% 30.02 in 10.0 mi South 3.5 mph - N/A   Clear
1:35 PM 83.1 °F 45.1 °F 26% 30.01 in 10.0 mi Calm Calm - N/A   Clear
1:55 PM 84.7 °F 45.0 °F 25% 30.00 in 10.0 mi South 4.6 mph - N/A   Clear
2:15 PM 85.3 °F 42.4 °F 22% 29.99 in 10.0 mi South 3.5 mph - N/A   Clear
2:35 PM 86.4 °F 41.2 °F 20% 29.98 in 10.0 mi Calm Calm - N/A   Clear
2:55 PM 87.6 °F 41.7 °F 20% 29.98 in 10.0 mi SSW 3.5 mph - N/A   Clear
3:15 PM 87.4 °F 42.1 °F 20% 29.98 in 10.0 mi Calm Calm - N/A   Clear
3:35 PM 87.1 °F 42.1 °F 21% 29.98 in 10.0 mi Calm Calm - N/A   Clear
3:55 PM 88.2 °F 41.4 °F 19% 29.98 in 10.0 mi NW 5.8 mph - N/A   Clear
4:15 PM 88.0 °F 41.7 °F 20% 29.97 in 10.0 mi Calm Calm - N/A   Clear
4:35 PM 88.3 °F 41.4 °F 19% 29.97 in 10.0 mi West 5.8 mph - N/A   Clear
4:55 PM 85.8 °F 42.3 °F 22% 29.97 in 10.0 mi SW 3.5 mph - N/A   Clear
5:15 PM 86.7 °F 42.4 °F 21% 29.97 in 10.0 mi Calm Calm - N/A   Clear
5:35 PM 87.1 °F 42.8 °F 21% 29.96 in 10.0 mi Calm Calm - N/A   Clear
5:55 PM 85.3 °F 44.1 °F 24% 29.96 in 10.0 mi Calm Calm - N/A   Clear
6:15 PM 82.9 °F 44.2 °F 26% 29.96 in 10.0 mi Calm Calm - N/A   Clear
6:35 PM 79.3 °F 47.8 °F 33% 29.97 in 10.0 mi Calm Calm - N/A   Clear
6:55 PM 75.9 °F 48.9 °F 38% 29.97 in 10.0 mi Calm Calm - N/A   Clear
7:15 PM 73.2 °F 52.2 °F 48% 29.97 in 10.0 mi Calm Calm - N/A   Clear
7:35 PM 72.9 °F 49.8 °F 44% 29.98 in 10.0 mi Calm Calm - N/A   Clear
7:55 PM 72.5 °F 51.4 °F 47% 29.98 in 10.0 mi Calm Calm - N/A   Scattered Clouds
8:15 PM 70.9 °F 54.0 °F 55% 29.98 in 10.0 mi Calm Calm - N/A   Scattered Clouds
8:35 PM 71.6 °F 53.4 °F 53% 29.98 in 10.0 mi WSW 3.5 mph - N/A   Scattered Clouds
8:55 PM 72.7 °F 53.6 °F 51% 29.99 in 10.0 mi Calm Calm - N/A   Clear
9:15 PM 71.6 °F 54.9 °F 55% 29.99 in 10.0 mi Calm Calm - N/A   Scattered Clouds
9:35 PM 71.6 °F 55.4 °F 57% 29.99 in 10.0 mi Calm Calm - N/A   Scattered Clouds
9:55 PM 72.1 °F 55.0 °F 55% 29.99 in 10.0 mi South 3.5 mph - N/A   Mostly Cloudy
10:15 PM 72.9 °F 54.5 °F 52% 29.99 in 10.0 mi South 3.5 mph - N/A   Overcast
10:35 PM 72.7 °F 53.6 °F 51% 29.99 in 10.0 mi SW 3.5 mph - N/A   Mostly Cloudy
10:55 PM 71.6 °F 55.4 °F 57% 29.98 in 10.0 mi SSW 3.5 mph - N/A   Mostly Cloudy
11:15 PM 72.3 °F 54.9 °F 54% 29.98 in 10.0 mi South 3.5 mph - N/A   Scattered Clouds
11:35 PM 71.6 °F 54.1 °F 54% 29.98 in 10.0 mi South 4.6 mph - N/A   Clear
11:55 PM 72.3 °F 51.4 °F 48% 29.96 in 10.0 mi South 10.4 mph - N/A   Clear